Location: Dattensoll
(49.9928°N, 9.8954°E)
Time: 00:54:53
(UTC+00:00)

ISS - Visible Passes

Search period start: 25 January 2026 00:00
Search period end: 04 February 2026 00:00
Orbit: 413 x 423 km, 51.6° (Epoch: 23 January)

Date Brightness Start Highest point End Pass type
(mag) Time Alt. Az. Time Alt. Az. Time Alt. Az.
25 Jan -3.6 17:42:57 10° WNW 17:46:16 69° SSW 17:47:34 34° SE visible
25 Jan -0.3 19:20:19 10° W 19:20:30 11° W 19:20:30 11° W visible
26 Jan -3.8 16:54:51 10° WNW 16:58:12 89° SSW 17:01:34 10° ESE visible
26 Jan -1.8 18:31:53 10° W 18:34:42 25° SW 18:34:44 25° SW visible
27 Jan -2.4 17:43:36 10° W 17:46:43 36° SSW 17:49:06 15° SSE visible
28 Jan -2.9 16:55:23 10° WNW 16:58:39 51° SSW 17:01:54 10° SE visible
28 Jan -0.7 18:33:31 10° WSW 18:34:49 12° SW 18:36:06 10° SSW visible
29 Jan -1.0 17:44:31 10° W 17:46:51 18° SW 17:49:11 10° S visible
30 Jan -1.5 16:55:59 10° W 16:58:49 26° SW 17:01:39 10° SSE visible
1 Feb -0.5 16:57:14 10° WSW 16:58:41 12° SW 17:00:07 10° SSW visible
